• In Uzbekistan
  • List of Countries
  • For 7 days
  • Water Temperature
  • Satellite Maps
  • Weather Map
  • Weather Widgets
  • user-avatar
    Login

    Hourly Weather La Massana

    Today, 24 March, Friday

    Time Temperature Precipitation Wind Pressure Humidity
    00:00 -8°C° 0 mm 1 mps 603 mmHg 74%
    01:00 -7°C° 0 mm 1 mps 603 mmHg 71%
    02:00 -7°C° 0 mm 1 mps 603 mmHg 68%
    03:00 -7°C° 0 mm 1 mps 603 mmHg 65%
    04:00 -7°C° 0 mm 1 mps 603 mmHg 62%
    05:00 -6°C° 0 mm 1 mps 604 mmHg 59%
    06:00 -4°C° 0 mm 1 mps 604 mmHg 56%
    07:00 -3°C° 0 mm 1 mps 605 mmHg 52%
    08:00 -1°C° 0 mm 1 mps 606 mmHg 47%
    09:00 +1°C° 0 mm 1 mps 607 mmHg 42%
    10:00 +2°C° 0.1 mm 1 mps 608 mmHg 45%
    11:00 +3°C° 0.1 mm 1 mps 608 mmHg 48%
    12:00 +3°C° 0.1 mm 1 mps 608 mmHg 50%
    13:00 +2°C° 0.6 mm 1 mps 608 mmHg 60%
    14:00 +1°C° 0.6 mm 1 mps 607 mmHg 69%
    15:00 0°C° 0.6 mm 1 mps 607 mmHg 79%
    16:00 -2°C° 1.6 mm 2 mps 607 mmHg 83%
    17:00 -3°C° 1.6 mm 2 mps 606 mmHg 87%
    18:00 -4°C° 1.6 mm 2 mps 606 mmHg 91%
    19:00 -3°C° 1.9 mm 2 mps 606 mmHg 92%
    20:00 -3°C° 1.9 mm 2 mps 606 mmHg 93%
    21:00 -3°C° 1.9 mm 2 mps 606 mmHg 93%
    22:00 -4°C° 2.4 mm 3 mps 605 mmHg 94%
    23:00 -4°C° 2.4 mm 3 mps 605 mmHg 94%

    Tomorrow, 25 March, Saturday

    Time Temperature Precipitation Wind Pressure Humidity
    00:00 -2°C° 2.4 mm 3 mps 604 mmHg 94%
    01:00 -2°C° 3.5 mm 3 mps 604 mmHg 96%
    02:00 -2°C° 3.5 mm 3 mps 603 mmHg 97%
    03:00 -2°C° 3.5 mm 3 mps 602 mmHg 98%
    04:00 -2°C° 3.8 mm 3 mps 602 mmHg 98%
    05:00 -2°C° 3.8 mm 3 mps 602 mmHg 98%
    06:00 -2°C° 3.8 mm 3 mps 602 mmHg 98%
    07:00 -2°C° 1.3 mm 3 mps 602 mmHg 98%
    08:00 -4°C° 1.3 mm 4 mps 602 mmHg 97%
    09:00 -5°C° 1.3 mm 5 mps 602 mmHg 96%
    10:00 -5°C° 0.9 mm 5 mps 603 mmHg 92%
    11:00 -5°C° 0.9 mm 5 mps 604 mmHg 88%
    12:00 -5°C° 0.9 mm 5 mps 604 mmHg 84%
    13:00 -5°C° 0.5 mm 5 mps 604 mmHg 84%
    14:00 -4°C° 0.5 mm 4 mps 605 mmHg 83%
    15:00 -3°C° 0.5 mm 4 mps 605 mmHg 82%
    16:00 -4°C° 0.3 mm 3 mps 605 mmHg 84%
    17:00 -5°C° 0.3 mm 3 mps 605 mmHg 86%
    18:00 -5°C° 0.3 mm 3 mps 605 mmHg 88%
    19:00 -6°C° 0.1 mm 3 mps 605 mmHg 89%
    20:00 -6°C° 0.1 mm 3 mps 606 mmHg 89%
    21:00 -6°C° 0.1 mm 3 mps 606 mmHg 89%
    22:00 -6°C° 0 mm 3 mps 606 mmHg 90%
    23:00 -5°C° 0 mm 2 mps 606 mmHg 90%

    Day after tomorrow, 26 March, Sunday

    Time Temperature Precipitation Wind Pressure Humidity
    00:00 -5°C° 0 mm 2 mps 606 mmHg 90%
    01:00 -5°C° 0 mm 2 mps 606 mmHg 90%
    02:00 -6°C° 0 mm 2 mps 606 mmHg 90%
    03:00 -6°C° 0 mm 2 mps 606 mmHg 90%
    04:00 -6°C° 0 mm 2 mps 606 mmHg 90%
    05:00 -7°C° 0 mm 2 mps 606 mmHg 90%
    06:00 -8°C° 0 mm 2 mps 606 mmHg 90%
    07:00 -5°C° 0 mm 2 mps 607 mmHg 89%
    08:00 -2°C° 0 mm 2 mps 609 mmHg 87%
    09:00 +2°C° 0 mm 2 mps 610 mmHg 85%
    10:00 +3°C° 0 mm 2 mps 611 mmHg 83%
    11:00 +3°C° 0 mm 2 mps 611 mmHg 81%
    12:00 +4°C° 0 mm 2 mps 611 mmHg 79%
    13:00 +4°C° 0 mm 2 mps 611 mmHg 78%
    14:00 +5°C° 0 mm 2 mps 611 mmHg 77%
    15:00 +5°C° 0 mm 2 mps 611 mmHg 76%
    16:00 +3°C° 0 mm 2 mps 610 mmHg 80%
    17:00 +2°C° 0 mm 1 mps 609 mmHg 85%
    18:00 -1°C° 0 mm 1 mps 608 mmHg 89%
    19:00 -2°C° 0 mm 1 mps 607 mmHg 87%
    20:00 -3°C° 0 mm 1 mps 607 mmHg 84%
    21:00 -4°C° 0 mm 1 mps 607 mmHg 82%
    22:00 -6°C° 0 mm 2 mps 607 mmHg 81%
    23:00 -6°C° 0 mm 2 mps 607 mmHg 80%

    27 March, Monday

    Time Temperature Precipitation Wind Pressure Humidity
    00:00 -5°C° 0 mm 2 mps 607 mmHg 78%
    01:00 -5°C° 0 mm 2 mps 607 mmHg 78%
    02:00 -5°C° 0 mm 2 mps 607 mmHg 79%
    03:00 -5°C° 0 mm 2 mps 607 mmHg 79%
    04:00 -4°C° 0 mm 2 mps 607 mmHg 78%
    05:00 -4°C° 0 mm 2 mps 607 mmHg 78%
    06:00 -4°C° 0 mm 2 mps 607 mmHg 78%
    07:00 -2°C° 0.1 mm 2 mps 609 mmHg 77%
    08:00 +1°C° 0.1 mm 2 mps 610 mmHg 76%
    09:00 +3°C° 0.1 mm 2 mps 611 mmHg 75%
    10:00 +3°C° 0.5 mm 2 mps 611 mmHg 76%
    11:00 +3°C° 0.5 mm 2 mps 612 mmHg 78%
    12:00 +2°C° 0.5 mm 3 mps 612 mmHg 80%
    13:00 +4°C° 0.1 mm 2 mps 612 mmHg 78%
    14:00 +4°C° 0.1 mm 2 mps 612 mmHg 76%
    15:00 +5°C° 0.1 mm 2 mps 612 mmHg 74%
    16:00 +3°C° 0 mm 2 mps 612 mmHg 80%
    17:00 +2°C° 0 mm 1 mps 611 mmHg 85%
    18:00 0°C° 0 mm 1 mps 610 mmHg 90%
    19:00 -1°C° 0 mm 1 mps 610 mmHg 89%
    20:00 -2°C° 0 mm 1 mps 610 mmHg 88%
    21:00 -4°C° 0 mm 1 mps 610 mmHg 87%
    22:00 -4°C° 0 mm 1 mps 610 mmHg 85%
    23:00 -4°C° 0 mm 1 mps 610 mmHg 83%

    28 March, Tuesday

    Time Temperature Precipitation Wind Pressure Humidity
    00:00 -3°C° 0 mm 1 mps 610 mmHg 81%
    01:00 -4°C° 0 mm 1 mps 610 mmHg 82%
    02:00 -4°C° 0 mm 1 mps 610 mmHg 82%
    03:00 -4°C° 0 mm 1 mps 610 mmHg 83%
    04:00 -4°C° 0 mm 1 mps 610 mmHg 83%
    05:00 -4°C° 0 mm 1 mps 610 mmHg 83%
    06:00 -4°C° 0 mm 1 mps 610 mmHg 83%
    07:00 -1°C° 0 mm 1 mps 612 mmHg 78%
    08:00 +2°C° 0 mm 1 mps 614 mmHg 74%
    09:00 +6°C° 0 mm 1 mps 616 mmHg 69%
    10:00 +6°C° 0 mm 1 mps 616 mmHg 67%
    11:00 +7°C° 0 mm 1 mps 616 mmHg 65%
    12:00 +8°C° 0 mm 1 mps 617 mmHg 63%
    13:00 +8°C° 0 mm 1 mps 617 mmHg 63%
    14:00 +7°C° 0 mm 2 mps 617 mmHg 64%
    15:00 +8°C° 0 mm 2 mps 617 mmHg 64%
    16:00 +7°C° 0 mm 1 mps 616 mmHg 72%
    17:00 +5°C° 0 mm 1 mps 615 mmHg 80%
    18:00 +3°C° 0 mm 1 mps 614 mmHg 88%
    19:00 +2°C° 0 mm 1 mps 614 mmHg 89%
    20:00 0°C° 0 mm 1 mps 614 mmHg 91%
    21:00 -1°C° 0 mm 1 mps 614 mmHg 92%
    22:00 -1°C° 0 mm 1 mps 614 mmHg 92%
    23:00 -3°C° 0 mm 0 mps 613 mmHg 91%

    29 March, Wednesday

    Time Temperature Precipitation Wind Pressure Humidity
    00:00 -3°C° 0 mm 0 mps 613 mmHg 91%
    01:00 -3°C° 0 mm 0 mps 613 mmHg 90%
    02:00 -3°C° 0 mm 0 mps 613 mmHg 90%
    03:00 -3°C° 0 mm 0 mps 613 mmHg 90%
    04:00 -3°C° 0 mm 0 mps 613 mmHg 89%
    05:00 -3°C° 0 mm 0 mps 613 mmHg 88%
    06:00 -3°C° 0 mm 0 mps 613 mmHg 86%
    07:00 +1°C° 0 mm 1 mps 615 mmHg 79%
    08:00 +5°C° 0 mm 1 mps 616 mmHg 71%
    09:00 +8°C° 0 mm 1 mps 618 mmHg 63%
    10:00 +9°C° 0 mm 1 mps 618 mmHg 60%
    11:00 +9°C° 0 mm 2 mps 619 mmHg 58%
    12:00 +10°C° 0 mm 2 mps 619 mmHg 55%
    13:00 +10°C° 0 mm 2 mps 618 mmHg 56%
    14:00 +10°C° 0 mm 2 mps 618 mmHg 57%
    15:00 +10°C° 0 mm 2 mps 618 mmHg 59%
    16:00 +8°C° 0 mm 2 mps 617 mmHg 67%
    17:00 +6°C° 0 mm 2 mps 616 mmHg 76%
    18:00 +4°C° 0 mm 1 mps 615 mmHg 85%
    19:00 +3°C° 0 mm 1 mps 615 mmHg 86%
    20:00 +2°C° 0 mm 1 mps 614 mmHg 87%
    21:00 +1°C° 0 mm 1 mps 614 mmHg 88%
    22:00 +1°C° 0 mm 1 mps 614 mmHg 88%
    23:00 +1°C° 0 mm 1 mps 614 mmHg 88%
    Show more